Tracking 19146 objects as of 24-Apr-2018
HD Live streaming from Space Station
objects crossing your sky now

FENGYUN 1C DEB

Track FENGYUN 1C DEB now!
10-day predictions


NORAD ID: 35155
Int'l Code: 1999-025DMK
Perigee: 833.6 km
Apogee: 873.8 km
Inclination: 98.8 °
Period: 101.9 minutes
Semi major axis: 7224 km
RCS: 0.0117 m2 (small)
Launch date: May 10, 1999
Source: People's Republic of China (PRC)
Launch site: Taiyaun Space Center, China (TSC)

Note: This is SATELLITE DEBRIS
aabbcc
Your satellite tracking list
Your tracking list is empty




NASA's NSSDC Master Catalog

Two Line Element Set (TLE):
1 35155U 99025DMK 18113.95509712  .00000321  00000-0  19192-3 0  9997
2 35155  98.7907 176.9117 0027857 146.1817 214.1139 14.13755923536601
Source of the keplerian elements: AFSPC